AUA5002 LOWL-LOWW

Flight info

Callsign AUA5002
Flight time 0h 21m
Altitude 15000
Route PEROL DCT MASUR MASUR3W
Aircraft A321/M-SDE3FGHIRWY/LB1

Departure

Time 2026-04-24 16:33
Airport Linz-Hörsching Airport (LOWL)

Arrival

Time 2026-04-24 16:54
Airport Vienna International Airport (LOWW)
Time Latitude Longitude Altitude Speed Heading
2026-04-24 16:26 48.23863 14.19271 976 ft 0 kts 88°
2026-04-24 16:31 48.23858 14.19345 976 ft 21 kts 106°
2026-04-24 16:31 48.23780 14.19553 979 ft 21 kts 133°
2026-04-24 16:31 48.23655 14.19657 976 ft 21 kts 158°
2026-04-24 16:31 48.23525 14.19733 977 ft 19 kts 159°
2026-04-24 16:32 48.23448 14.19776 982 ft 17 kts 160°
2026-04-24 16:32 48.23356 14.19710 981 ft 19 kts 262°
2026-04-24 16:32 48.23336 14.19095 984 ft 102 kts 266°
2026-04-24 16:32 48.23284 14.17686 1222 ft 149 kts 271°
2026-04-24 16:33 48.23460 14.16212 2178 ft 145 kts 307°
2026-04-24 16:33 48.24382 14.15706 3184 ft 158 kts
2026-04-24 16:33 48.25306 14.16745 3935 ft 188 kts 53°
2026-04-24 16:33 48.25790 14.18755 4469 ft 219 kts 68°
2026-04-24 16:34 48.26289 14.20984 4801 ft 235 kts 66°
2026-04-24 16:34 48.26864 14.23424 5055 ft 260 kts 67°
2026-04-24 16:34 48.27433 14.26133 5452 ft 287 kts 77°
2026-04-24 16:34 48.27330 14.29251 5788 ft 316 kts 104°
2026-04-24 16:35 48.26580 14.32482 6090 ft 340 kts 109°
2026-04-24 16:35 48.25924 14.34673 6258 ft 356 kts 115°
2026-04-24 16:35 48.24770 14.38097 6453 ft 379 kts 116°
2026-04-24 16:35 48.23608 14.41727 6834 ft 391 kts 111°
2026-04-24 16:36 48.22587 14.45585 7263 ft 402 kts 109°
2026-04-24 16:36 48.21600 14.49527 7864 ft 406 kts 108°
2026-04-24 16:36 48.20627 14.53525 8476 ft 409 kts 107°
2026-04-24 16:36 48.19653 14.57551 9105 ft 412 kts 107°
2026-04-24 16:37 48.18664 14.61599 9706 ft 415 kts 107°
2026-04-24 16:37 48.17652 14.65678 10248 ft 418 kts 107°
2026-04-24 16:37 48.16630 14.69765 10743 ft 420 kts 108°
2026-04-24 16:37 48.15608 14.73820 11079 ft 421 kts 108°
2026-04-24 16:38 48.14569 14.77923 11321 ft 422 kts 108°
2026-04-24 16:38 48.13528 14.82037 11567 ft 422 kts 107°
2026-04-24 16:38 48.12485 14.86155 11822 ft 423 kts 108°
2026-04-24 16:38 48.11437 14.90282 12068 ft 425 kts 108°
2026-04-24 16:39 48.10385 14.94417 12325 ft 426 kts 108°
2026-04-24 16:39 48.09330 14.98565 12584 ft 426 kts 108°
2026-04-24 16:39 48.08274 15.02717 12841 ft 428 kts 108°
2026-04-24 16:39 48.07214 15.06880 13030 ft 429 kts 108°
2026-04-24 16:40 48.06145 15.11062 13067 ft 430 kts 108°
2026-04-24 16:40 48.05075 15.15229 13069 ft 430 kts 108°
2026-04-24 16:40 48.03999 15.19411 13060 ft 430 kts 108°
2026-04-24 16:40 48.02927 15.23583 13070 ft 430 kts 108°
2026-04-24 16:41 48.01857 15.27756 13063 ft 430 kts 107°
2026-04-24 16:41 48.00798 15.31868 13067 ft 430 kts 108°
2026-04-24 16:41 47.99708 15.36087 13066 ft 430 kts 108°
2026-04-24 16:41 47.98642 15.40203 13062 ft 430 kts 108°
2026-04-24 16:42 47.97562 15.44357 13066 ft 430 kts 108°
2026-04-24 16:42 47.96476 15.48521 12995 ft 430 kts 108°
2026-04-24 16:42 47.95395 15.52668 12748 ft 428 kts 107°
2026-04-24 16:42 47.94317 15.56804 12484 ft 427 kts 107°
2026-04-24 16:43 47.93238 15.60935 12236 ft 427 kts 108°
2026-04-24 16:43 47.92163 15.65040 11983 ft 425 kts 107°
2026-04-24 16:43 47.91083 15.69154 11732 ft 425 kts 107°
2026-04-24 16:43 47.90002 15.73265 11471 ft 425 kts 107°
2026-04-24 16:44 47.88926 15.77362 11219 ft 424 kts 107°
2026-04-24 16:44 47.87851 15.81449 10872 ft 423 kts 108°
2026-04-24 16:44 47.86775 15.85529 10520 ft 421 kts 107°
2026-04-24 16:44 47.85705 15.89569 10156 ft 418 kts 107°
2026-04-24 16:45 47.84907 15.93681 9781 ft 409 kts 94°
2026-04-24 16:45 47.84872 15.97846 9391 ft 398 kts 78°
2026-04-24 16:45 47.85488 16.01771 8970 ft 392 kts 70°
2026-04-24 16:45 47.86225 16.05718 8466 ft 390 kts 70°
2026-04-24 16:46 47.86942 16.09554 7989 ft 389 kts 70°
2026-04-24 16:46 47.87666 16.13425 7466 ft 387 kts 70°
2026-04-24 16:46 47.88385 16.17297 6984 ft 387 kts 70°
2026-04-24 16:46 47.89096 16.21150 6495 ft 382 kts 70°
2026-04-24 16:47 47.89771 16.24852 6118 ft 355 kts 70°
2026-04-24 16:47 47.90383 16.28257 5914 ft 326 kts 69°
2026-04-24 16:47 47.90943 16.31401 5695 ft 302 kts 69°
2026-04-24 16:47 47.91478 16.34356 5503 ft 290 kts 69°
2026-04-24 16:48 47.91998 16.37201 5301 ft 279 kts 68°
2026-04-24 16:48 47.92503 16.39939 5098 ft 269 kts 68°
2026-04-24 16:48 47.92993 16.42581 4890 ft 260 kts 68°
2026-04-24 16:48 47.93467 16.45143 4682 ft 252 kts 68°
2026-04-24 16:49 47.93923 16.47631 4491 ft 246 kts 68°
2026-04-24 16:49 47.94369 16.50071 4284 ft 242 kts 67°
2026-04-24 16:49 47.94811 16.52494 3997 ft 241 kts 68°
2026-04-24 16:49 47.95245 16.54895 3745 ft 240 kts 68°
2026-04-24 16:50 47.95578 16.56456 3552 ft 236 kts 60°
2026-04-24 16:50 47.96536 16.59301 3227 ft 225 kts 50°
2026-04-24 16:50 47.97543 16.60973 2816 ft 211 kts 31°
2026-04-24 16:50 47.98712 16.61983 2542 ft 180 kts 15°
2026-04-24 16:51 47.99817 16.62410 2356 ft 150 kts
2026-04-24 16:51 48.00809 16.62429 2175 ft 140 kts 350°
2026-04-24 16:51 48.01734 16.62141 2011 ft 134 kts 341°
2026-04-24 16:51 48.02629 16.61764 1835 ft 133 kts 342°
2026-04-24 16:52 48.03522 16.61388 1662 ft 134 kts 342°
2026-04-24 16:52 48.04425 16.61006 1481 ft 140 kts 341°
2026-04-24 16:52 48.05419 16.60586 1296 ft 154 kts 342°
2026-04-24 16:52 48.06404 16.60172 1108 ft 142 kts 341°
2026-04-24 16:53 48.07324 16.59789 923 ft 131 kts 338°
2026-04-24 16:53 48.08182 16.59433 775 ft 129 kts 336°
2026-04-24 16:53 48.09037 16.59071 669 ft 126 kts 337°
2026-04-24 16:53 48.09855 16.58719 622 ft 114 kts 339°
2026-04-24 16:54 48.10458 16.58452 621 ft 75 kts 344°
2026-04-24 16:54 48.10889 16.58272 616 ft 44 kts 342°
2026-04-24 16:54 48.11018 16.58132 614 ft 13 kts 308°
2026-04-24 16:54 48.11047 16.58056 613 ft 6 kts 297°
2026-04-24 16:55 48.11086 16.57937 620 ft 24 kts 295°
2026-04-24 16:55 48.11163 16.57699 618 ft 24 kts 296°
2026-04-24 16:55 48.11237 16.57469 613 ft 25 kts 296°
2026-04-24 16:55 48.11323 16.57344 615 ft 16 kts 13°
2026-04-24 16:56 48.11412 16.57381 610 ft 9 kts 344°
2026-04-24 16:56 48.11463 16.57275 620 ft 17 kts 296°
2026-04-24 16:56 48.11474 16.57169 613 ft 9 kts 226°
2026-04-24 16:56 48.11434 16.57135 612 ft 2 kts 205°
2026-04-24 16:57 48.11431 16.57133 611 ft 0 kts 205°